Date,TemperatureHighF,TemperatureAvgF,TemperatureLowF,DewpointHighF,DewpointAvgF,DewpointLowF,HumidityHigh,HumidityAvg,HumidityLow,PressureMaxIn,PressureMinIn,WindSpeedMaxMPH,WindSpeedAvgMPH,GustSpeedMaxMPH,PrecipitationSumIn
2012-8-16,70.0,66.6,57.7,66.9,64.3,56.3,98,92,83,29.90,29.72,14,4,14,0.35
2012-8-17,76.8,63.2,50.6,59.8,54.4,49.8,99,77,40,29.98,29.90,12,2,12,0.00
2012-8-18,78.3,63.6,47.9,60.0,52.9,46.9,98,72,38,30.00,29.89,10,2,10,0.00
2012-8-19,79.7,65.6,54.4,58.6,54.7,48.6,97,71,38,29.94,29.85,13,2,13,0.06
2012-8-20,78.4,63.2,50.0,61.1,55.5,49.2,98,79,45,29.98,29.89,20,2,20,0.01
2012-8-21,80.5,64.6,50.8,61.6,53.8,49.8,98,72,36,30.06,29.98,10,2,10,0.00
2012-8-22,86.6,68.6,50.2,61.0,54.8,48.2,97,66,31,30.10,29.99,12,3,12,0.00
2012-8-23,91.7,74.2,58.5,63.7,58.8,54.8,90,63,31,30.08,29.97,14,4,14,0.00
2012-8-24,93.2,76.4,57.7,65.1,60.0,55.1,94,61,32,30.02,29.92,15,4,15,0.00
2012-8-25,93.4,76.9,58.9,66.7,60.5,56.0,96,61,29,30.02,29.94,13,4,14,0.00
2012-8-26,78.0,70.7,63.6,72.6,67.3,59.4,98,89,69,30.01,29.92,12,3,12,2.56
2012-8-27,88.4,73.7,60.3,73.9,65.2,56.2,99,79,34,30.03,29.92,13,3,13,0.01
2012-8-28,87.7,71.7,56.3,67.3,60.7,55.2,98,73,37,30.10,29.97,9,2,9,0.00
2012-8-29,80.8,66.5,60.1,66.3,61.1,58.6,96,84,51,30.06,30.02,9,2,9,0.00
2012-9-1,78.9,75.2,73.6,74.4,72.4,71.5,95,91,85,29.89,29.86,12,6,12,0.81
2012-9-2,84.1,76.6,72.5,75.8,73.0,71.3,97,89,73,29.87,29.78,14,6,14,0.08
2012-9-3,87.9,78.1,70.2,75.7,71.9,69.0,97,82,58,29.87,29.80,12,4,12,0.00
2012-9-4,91.1,78.2,68.6,75.9,70.6,62.5,98,80,45,29.87,29.76,20,3,20,0.02
2012-9-5,84.9,72.6,64.8,69.9,65.9,62.3,97,81,54,29.91,29.70,26,5,26,0.13
2012-9-6,86.5,73.7,61.1,69.9,63.1,55.6,99,74,36,29.89,29.78,13,2,13,0.00
2012-9-7,81.2,66.6,60.0,69.2,62.6,56.2,96,88,58,29.91,29.68,18,5,18,0.40
2012-9-8,72.9,61.8,51.3,56.9,52.9,49.0,97,75,43,29.88,29.79,16,5,16,0.11
2012-9-9,72.8,61.1,50.0,58.6,54.4,48.6,98,81,51,30.12,29.80,12,4,12,0.16
2012-9-10,76.7,61.8,47.0,56.4,50.8,46.2,98,71,40,30.20,30.07,12,3,12,0.00
2012-9-11,83.2,67.2,49.9,61.8,54.8,47.4,93,67,40,30.14,30.03,17,5,17,0.00
2012-9-12,85.8,69.3,54.2,63.2,57.0,51.7,94,69,36,30.14,30.04,17,4,17,0.00
2012-9-13,80.5,64.7,54.4,65.4,58.4,52.2,95,81,50,30.27,30.11,15,4,15,0.11
2012-9-14,73.9,60.3,49.9,55.4,50.4,41.5,98,74,33,30.32,30.25,9,2,9,0.04
2012-9-15,78.9,61.4,45.6,56.7,48.7,43.6,98,68,30,30.29,30.11,13,2,13,0.00
2012-9-16,77.8,60.9,44.1,58.1,49.5,42.9,98,71,35,30.11,29.94,12,2,12,0.00
2012-9-17,78.3,63.1,49.8,66.7,57.0,48.4,98,83,48,29.95,29.70,12,3,12,0.05
2012-9-18,63.6,54.1,41.0,55.8,43.9,34.9,95,72,37,30.02,29.75,16,4,16,0.01
2012-9-19,73.4,56.4,35.2,46.7,41.4,34.1,98,63,32,30.08,29.84,18,6,18,0.00
2012-9-20,71.9,60.2,44.3,53.0,44.5,37.0,93,60,31,29.92,29.82,17,6,17,0.00
2012-9-21,65.3,52.4,42.9,53.2,46.2,40.1,96,81,47,29.92,29.75,14,3,14,0.02
2012-9-22,59.8,50.0,40.6,49.6,43.1,37.3,98,79,50,30.16,29.78,15,5,15,0.00
2012-9-23,62.6,47.0,34.5,44.2,36.4,31.1,98,72,32,30.25,30.16,16,3,16,0.00
2012-9-24,71.6,52.6,31.4,41.5,35.0,29.4,95,58,25,30.22,29.92,20,6,20,0.04
2012-9-25,74.3,62.2,49.9,64.1,54.0,41.0,96,75,56,29.92,29.80,10,3,10,0.00
2012-9-26,73.2,61.8,53.7,64.2,56.4,47.8,99,84,57,30.11,29.83,16,4,16,0.00
2012-9-27,69.7,58.2,47.5,51.5,47.2,44.4,94,69,43,30.17,30.08,9,4,9,0.00
2012-9-28,68.8,55.1,42.4,56.8,49.0,41.3,98,81,60,30.12,30.07,15,4,15,0.00
2012-9-29,79.1,57.8,39.7,54.5,44.7,38.7,98,68,28,30.10,29.90,13,3,13,0.00
2012-9-30,68.4,57.2,45.6,55.2,47.7,42.5,98,73,41,29.94,29.88,14,5,14,0.00
2012-10-1,66.8,56.0,45.3,50.4,46.4,43.6,97,73,45,29.90,29.78,12,4,12,0.00
2012-10-2,71.2,62.8,52.4,56.3,51.2,44.5,93,68,39,29.85,29.76,17,7,17,0.00
2012-10-3,66.5,60.6,58.7,61.4,58.5,56.5,97,93,80,30.00,29.83,10,4,10,0.05
2012-10-4,80.0,61.2,49.7,62.8,55.2,46.6,96,82,49,30.10,29.96,24,7,24,0.03
2012-10-5,49.5,44.6,38.0,46.4,38.9,31.3,92,81,63,30.16,30.07,13,5,13,0.00
2012-10-6,51.8,41.5,30.2,35.9,31.7,27.2,90,69,49,30.18,30.07,15,4,15,0.10
2012-10-7,51.7,40.7,29.5,35.3,29.7,24.4,90,67,37,30.18,30.12,12,3,12,0.01
2012-10-8,60.2,43.9,25.3,36.2,30.9,22.5,92,64,35,30.18,30.01,20,5,20,0.00
2012-10-9,67.2,53.2,41.3,45.2,40.5,35.6,94,65,39,30.02,29.79,23,9,23,0.01
2012-10-10,53.5,42.2,31.2,41.2,34.3,27.8,96,76,45,30.18,29.91,17,5,17,0.02
2012-10-11,65.8,49.4,30.0,46.1,35.7,27.0,92,63,35,30.22,30.04,25,8,25,0.13
2012-10-12,56.6,47.6,38.9,39.3,33.6,27.4,76,60,34,30.41,30.22,14,6,14,0.00
2012-10-13,66.7,56.1,43.5,63.6,50.5,30.4,97,82,57,30.25,29.78,15,7,15,0.04
2012-10-14,70.9,61.4,48.8,64.4,58.4,46.0,96,90,74,29.78,29.39,36,12,36,0.01
2012-10-15,61.0,49.7,41.3,46.0,42.8,39.7,94,78,50,29.94,29.76,13,5,13,0.00
2012-10-16,69.5,55.5,39.2,54.8,46.3,37.3,93,73,51,29.95,29.54,22,10,25,0.00
2012-10-17,68.9,60.2,53.7,58.9,54.6,49.7,96,82,65,29.56,29.24,38,9,38,0.00
2012-10-18,54.4,48.5,43.7,51.4,43.8,39.8,94,84,61,29.52,29.33,24,10,24,0.08
2012-10-19,52.4,46.9,41.3,48.1,44.7,40.0,97,92,78,29.64,29.41,12,4,12,0.11
2012-10-20,57.2,45.0,36.6,49.0,41.6,35.8,98,89,62,29.93,29.64,12,4,12,0.01
2012-10-21,69.8,52.3,35.4,52.9,45.5,34.1,98,80,52,30.03,29.92,17,6,17,0.00
2012-10-22,65.4,60.1,50.9,63.1,57.5,48.1,96,91,78,29.96,29.84,15,4,22,0.39
2012-10-23,70.4,63.2,59.8,67.2,61.0,57.5,98,93,87,29.91,29.85,8,3,12,0.07
2012-10-24,79.7,67.9,59.0,68.5,62.8,57.3,95,84,67,29.92,29.82,9,4,15,0.00
2012-10-25,77.1,64.0,43.9,65.7,58.5,41.8,95,83,66,30.01,29.66,13,7,32,0.88
2012-10-26,51.2,42.6,34.8,42.0,35.0,30.9,92,76,48,30.30,30.00,8,3,18,0.00
2012-10-27,49.9,39.1,32.1,38.3,32.4,29.3,93,78,54,30.29,30.21,9,3,14,0.00
2012-10-28,48.9,40.7,32.2,41.8,33.7,29.3,91,77,54,30.26,30.20,13,4,21,0.01
2012-10-29,52.3,41.3,31.0,39.8,32.6,29.0,95,73,46,30.25,30.01,13,4,22,0.00
2012-10-30,48.5,41.7,37.4,34.0,30.6,27.3,76,65,53,30.01,29.76,8,4,20,0.00
2012-10-31,49.7,39.2,29.6,36.1,30.1,23.7,83,70,58,29.86,29.77,8,4,13,0.00
2012-11-1,52.5,38.3,25.7,32.8,27.2,21.2,88,67,35,29.90,29.82,7,2,12,0.00
2012-11-2,49.9,38.7,29.0,35.3,30.6,26.6,93,75,43,30.13,29.89,5,1,12,0.00
2012-11-3,44.6,39.8,31.5,36.2,34.7,29.2,95,82,70,30.20,30.10,7,2,12,0.00
2012-11-4,50.6,37.1,23.8,36.1,30.0,22.3,96,79,42,30.23,30.16,6,1,13,0.00
2012-11-5,44.2,32.9,23.4,36.8,28.6,21.5,98,85,62,30.20,30.11,7,2,12,0.00
2012-11-6,40.7,34.6,23.2,39.0,32.5,21.2,97,92,79,30.12,29.88,6,3,9,0.15
2012-11-7,46.7,42.3,39.3,42.0,40.2,38.3,97,92,81,30.15,29.88,5,1,8,0.02
2012-11-8,46.7,41.3,35.4,41.3,38.3,33.6,97,89,74,30.21,30.09,7,2,12,0.00
2012-11-9,57.9,46.3,32.5,48.6,41.8,31.0,96,85,68,30.10,29.96,9,4,14,0.00
2012-11-10,69.8,59.6,48.4,60.0,51.6,44.6,90,76,61,29.98,29.84,14,6,22,0.10
2012-11-11,69.8,58.4,40.1,55.6,50.9,38.7,97,77,60,29.94,29.74,17,7,36,0.42
2012-11-12,40.1,33.9,28.4,38.6,27.8,24.0,96,78,65,30.34,29.93,17,8,24,0.12
2012-11-13,40.8,30.7,21.2,27.3,23.5,18.6,91,76,50,30.52,30.34,6,2,14,0.00
2012-11-14,44.6,32.9,25.0,31.3,26.9,22.0,91,79,55,30.54,30.39,10,2,16,0.00
2012-11-15,47.4,33.2,23.1,35.7,27.9,21.1,95,82,52,30.41,30.33,5,1,8,0.00
2012-11-16,54.2,37.0,24.5,36.5,29.1,22.3,95,76,44,30.48,30.38,6,1,8,0.00
2012-11-17,54.3,38.3,24.9,38.2,30.9,22.2,94,77,47,30.56,30.43,8,2,10,0.00
2012-11-18,56.8,43.0,33.0,39.8,34.5,30.3,90,73,47,30.44,30.31,8,3,12,0.00
2012-11-19,59.8,47.6,36.5,44.3,39.0,32.8,88,73,52,30.31,30.09,8,3,15,0.00
2012-11-20,59.6,48.7,34.2,49.7,43.9,33.2,97,84,67,30.16,30.04,6,1,8,0.00
2012-11-21,59.0,45.9,34.1,51.3,43.0,33.3,98,90,69,30.22,30.10,6,1,9,0.01
2012-11-22,63.3,51.8,39.3,51.6,46.5,38.0,98,83,62,30.10,29.79,14,5,21,0.03
2012-11-23,42.7,32.8,27.2,38.0,25.7,19.7,88,75,64,30.22,29.88,15,8,25,0.00
2012-11-24,33.9,28.8,24.2,24.5,21.3,19.1,82,73,60,30.28,30.01,7,3,10,0.00
2012-11-25,44.1,34.9,25.7,30.1,27.5,22.9,90,75,54,30.08,29.87,7,2,12,0.00
2012-11-26,36.8,30.3,23.2,27.3,22.9,19.8,92,75,54,30.36,30.08,7,1,12,0.00
2012-11-27,35.7,24.7,14.8,20.1,15.2,10.8,87,68,42,30.45,30.28,7,2,10,0.00
2012-11-28,46.0,32.3,22.2,27.9,22.4,17.3,90,68,42,30.40,30.28,8,2,13,0.00
2012-11-29,53.5,39.1,25.8,37.1,31.4,22.4,90,75,53,30.30,30.09,9,3,15,0.00
2012-11-30,55.6,42.9,32.8,39.3,35.2,31.0,96,76,51,30.12,30.04,8,2,10,0.00
2012-12-1,60.2,48.6,33.0,53.2,44.6,31.7,97,87,77,30.12,29.89,10,4,18,0.00
2012-12-2,64.5,55.9,43.4,57.5,52.4,41.8,98,88,75,30.01,29.86,10,3,18,0.02
2012-12-3,72.1,62.4,48.1,64.2,58.4,47.6,99,88,70,30.00,29.76,14,6,27,0.01
2012-12-4,61.4,48.4,34.0,58.8,41.2,30.7,94,78,46,30.25,29.86,9,2,14,0.09
2012-12-5,43.9,34.2,27.9,32.4,27.8,20.9,92,78,60,30.41,30.21,7,3,10,0.00
2012-12-6,44.9,39.1,30.6,41.4,35.4,28.4,92,86,79,30.21,29.91,10,5,13,0.00
2012-12-7,46.0,43.3,41.9,44.2,41.7,39.9,98,94,88,29.93,29.84,7,2,12,0.15
2012-12-8,44.3,40.0,37.1,40.9,37.5,34.2,97,91,80,30.07,29.82,8,3,13,0.10
2012-12-9,43.5,39.4,35.7,43.0,37.8,33.3,98,94,88,30.06,29.72,12,6,18,0.06
2012-12-10,38.2,31.1,28.8,36.2,29.4,26.9,96,93,90,29.96,29.72,8,4,15,0.00
2012-12-11,35.8,29.0,21.5,28.1,25.1,19.8,94,86,66,30.18,29.96,13,5,18,0.00
2012-12-12,46.4,32.0,20.9,33.8,27.0,18.7,94,82,58,30.33,30.18,8,3,15,0.00
2012-12-13,47.9,36.3,28.7,34.9,30.1,25.5,91,79,57,30.30,30.13,12,3,22,0.00
2012-12-14,48.3,36.8,25.0,36.8,31.5,23.0,94,82,60,30.21,30.03,7,2,12,0.00
2012-12-15,50.6,44.8,35.0,48.9,42.1,31.4,97,90,76,30.03,29.57,15,7,24,0.20
2012-12-16,49.9,43.4,37.1,47.6,41.5,35.0,96,93,88,29.73,29.58,10,5,15,0.00
2012-12-17,40.0,36.9,32.1,35.9,34.5,30.5,96,91,83,29.73,29.64,3,1,6,0.00
2012-12-18,42.4,36.8,31.1,40.3,34.3,29.3,96,91,87,29.81,29.59,15,5,21,0.00
2012-12-19,40.9,37.2,31.6,38.9,34.9,30.3,96,91,87,30.05,29.72,15,5,22,0.20
2012-12-20,51.2,41.5,31.8,49.9,40.0,30.3,97,95,86,29.73,29.02,18,11,27,0.88
2012-12-21,31.7,25.4,18.4,30.2,22.3,15.2,94,88,82,30.20,29.47,17,8,29,0.00
2012-12-22,32.5,22.8,13.9,27.5,19.7,11.5,93,88,77,30.25,29.96,6,2,9,0.00
2012-12-23,37.1,27.6,14.8,32.5,25.1,12.7,97,90,82,30.01,29.92,6,1,10,0.01
2012-12-24,34.2,31.1,27.7,31.4,28.2,25.0,92,89,84,30.08,29.83,7,3,12,0.00
2012-12-25,33.5,30.7,28.3,28.9,26.3,23.1,90,84,79,30.29,30.07,10,3,16,0.00
2012-12-26,33.7,32.3,29.1,28.0,26.6,24.8,85,79,73,30.16,29.93,16,8,28,0.00
2012-12-27,33.3,30.3,27.8,28.5,26.5,23.8,92,86,80,30.18,30.05,6,2,9,0.00
2012-12-28,32.2,31.0,30.2,29.9,28.9,26.8,96,92,85,30.12,29.87,10,4,14,0.00
2012-12-29,31.2,27.3,20.6,30.2,24.8,17.2,97,90,84,30.24,29.85,12,5,20,0.00
2012-12-30,36.5,25.4,14.4,28.8,21.4,12.1,92,85,70,30.37,30.11,12,4,16,0.00
2012-12-31,36.9,30.7,23.9,29.7,25.9,18.1,88,82,74,30.12,30.01,13,6,20,0.00
2013-1-1,29.6,20.1,8.5,17.9,11.4,5.2,87,70,41,30.23,30.09,7,2,13,0.00